This demonstration page uses our WeatherBlox Daily Observations layout. Learn more.

Left ArrowRight Arrow

44.89941, -97.11507

Hourly Observations for June 18, 2021

Temp ( °F °C ) Dew Point ( °F °C ) Humidity (%) Winds ( mph kmh ) Pressure ( in mb ) Visibility ( mi km ) Precip ( " mm )
12:53 am 00:53 Clear 64 17.8 56 13.3 75 75 Calm 29.82 1010 10 16 0.00 0.00
1:53 am 01:53 Clear 62 16.7 56 13.3 80 80 Calm 29.81 1010 10 16 0.00 0.00
2:53 am 02:53 Clear 59 15 54 12.2 83 83 Calm 29.83 1010 10 16 0.00 0.00
3:53 am 03:53 Clear 59 15 55 12.8 87 87 Calm 29.83 1010 10 16 0.00 0.00
4:53 am 04:53 Clear 55 12.8 51 10.6 87 87 Calm 29.84 1010 10 16 0.00 0.00
5:53 am 05:53 Sunny 54 12.2 49 9.4 83 83 Calm 29.87 1012 10 16 0.00 0.00
6:53 am 06:53 Sunny 58 14.4 52 11.1 81 81 Calm 29.89 1012 10 16 0.00 0.00
7:53 am 07:53 Sunny 66 18.9 52 11.1 61 61 NNE 3 6 29.88 1012 10 16 0.00 0.00
8:53 am 08:53 Sunny 76 24.4 43 6.1 31 31 ENE 9 15 29.86 1011 10 16 0.00 0.00
9:53 am 09:53 Sunny 78 25.6 41 5 27 27 ENE 9 15 29.86 1011 10 16 0.00 0.00
10:53 am 10:53 Sunny 81 27.2 41 5 24 24 Calm 29.87 1012 10 16 0.00 0.00
11:53 am 11:53 Sunny 84 28.9 41 5 22 22 Calm 29.86 1011 10 16 0.00 0.00
12:53 pm 12:53 Sunny 84 28.9 41 5 22 22 WNW 6 9 29.87 1011 10 16 0.00 0.00
1:53 pm 13:53 Sunny 86 30 40 4.4 20 20 W 7 11 29.86 1011 10 16 0.00 0.00
2:53 pm 14:53 Sunny 86 30 40 4.4 20 20 W 9 15 29.85 1011 10 16 0.00 0.00
3:53 pm 15:53 Sunny 85 29.4 41 5 21 21 NW 13 20 29.84 1011 10 16 0.00 0.00
4:53 pm 16:53 Sunny 88 31.1 40 4.4 18 18 W 9 15 29.83 1010 10 16 0.00 0.00
5:53 pm 17:53 Sunny 87 30.6 42 5.6 21 21 W 13 20 29.81 1010 10 16 0.00 0.00
6:53 pm 18:53 Sunny 83 28.3 44 6.7 25 25 W 10 17 29.80 1009 10 16 0.00 0.00
7:53 pm 19:53 Sunny 83 28.3 43 6.1 24 24 NW 16 26 29.80 1009 10 16 0.00 0.00
8:53 pm 20:53 Sunny 77 25 43 6.1 30 30 NNW 13 20 29.81 1010 10 16 0.00 0.00
9:53 pm 21:53 Clear 71 21.7 48 8.9 44 44 N 12 19 29.85 1011 10 16 0.00 0.00
10:53 pm 22:53 Clear 67 19.4 46 7.8 47 47 N 12 19 29.89 1012 10 16 0.00 0.00
11:53 pm 23:53 Clear 60 15.6 45 7.2 58 58 N 8 13 29.90 1013 10 16 0.00 0.00

Powered by AerisWeather